[[{"header":{"parameterUnit":"m.s-1","parameterCategory":1,"la1":30.2991,"la2":30.254,"lo1":-89.0895,"lo2":-89.0444,"dy":0.0017,"dx":0.0017,"nx":28,"ny":28,"refTime":"2024-10-21T21:00:00:Z","depth":0,"parameterNumber":2,"parameterNumberName":"U-component_of_WINDS"},"data":[0,0,0,0,0,0,0,0,0,0,0,0,0,0,0,0,0,0,0,0,0,0,0,0,0,0,0,0,0,0,0,0,0,0,0,0,0,0,0,0,0,0,0,0,0,0,0,0,0,0,0,0,0,0,0,0,0,0,0.5937,0.5937,0,0.5958,0.5958,0.5959,0.5965,0.5965,0.5965,0.5965,0.5986,0.5986,0.5987,0,0,0,0,0,0,0,0,0,0,0,0,0,0.5903,0.5903,0.5937,0.5937,0.5937,0.5958,0.5958,0.5959,0.5965,0.5965,0.5965,0.5965,0.5985,0.5986,0.5987,0,0,0,0,0,0,0,0,0,0,0,0,0,0.592,0.5903,0.5937,0.5943,0.5944,0.5958,0.5958,0.5959,0.5965,0.5965,0.5965,0.5965,0.5985,0.5986,0.5987,0.5996,0,0,0.599,0.599,0,0,0,0,0,0,0,0,0.5919,0.5921,0.5942,0.5943,0.5944,0.5959,0.5954,0.5971,0.5965,0.5957,0.5965,0.5965,0.5977,0.5978,0.5983,0.5997,0.5997,0.599,0.5991,0.5991,0.5991,0,0,0,0,0,0,0,0.5918,0.592,0.5945,0.5942,0.5943,0.5945,0.5948,0.5957,0.5967,0.5958,0.5959,0.5961,0.5977,0.5982,0.5983,0.5998,0.599,0.5991,0.5991,0.5992,0.6021,0.6022,0,0,0,0,0,0,0.5916,0.5919,0.5945,0.5946,0.5931,0.5946,0.5949,0.5954,0.5967,0.5969,0.5961,0.5961,0.598,0.5982,0.5984,0.5996,0.5991,0.5992,0.5992,0.6021,0.6021,0.6022,0,0,0,0,0,0,0.5915,0.5918,0.5944,0.5933,0.5936,0.5947,0.5953,0.5955,0.5959,0.597,0.5972,0.5964,0.598,0.5983,0.5993,0.5996,0.5992,0.5993,0.6021,0.6021,0.6022,0.6018,0,0,0,0,0,0,0.5914,0.5917,0.5921,0.5933,0.5937,0.5952,0.5953,0.5955,0.5961,0.5961,0.5973,0.5974,0.598,0.5992,0.5994,0.5998,0.5994,0.6021,0.6021,0.6021,0.6018,0.6018,0.6019,0,0,0,0,0,0.5913,0.5918,0.5921,0.5924,0.5941,0.5952,0.5955,0.5961,0.5961,0.5965,0.5972,0.5974,0.5996,0.5993,0.5995,0.5999,0.602,0.6021,0.6021,0.6018,0.6018,0.6019,0,0,0,0,0,0,0.5905,0.592,0.5923,0.5933,0.5941,0.5954,0.5958,0.5961,0.597,0.597,0.5978,0.598,0.599,0.5996,0.5992,0.6009,0.6008,0.6009,0.6005,0.6005,0.6006,0.6004,0.5995,0,0,0,0,0,0.5905,0.5913,0.5925,0.5933,0.5937,0.5947,0.5952,0.5957,0.5966,0.597,0.5977,0.5986,0.5995,0.6001,0.6009,0.6019,0.6022,0.6024,0.6024,0.6024,0.6025,0.6031,0.6032,0.6023,0.6023,0.6023,0,0,0.5904,0.5913,0.5917,0.5932,0.5939,0.5948,0.595,0.5958,0.5965,0.5971,0.5981,0.5988,0.5998,0.6009,0.6014,0.6013,0.6028,0.6025,0.6025,0.6025,0.6032,0.6033,0.6034,0.6024,0.6024,0.6023,0,0,0.5906,0.5914,0.5922,0.5929,0.5941,0.5948,0.595,0.5962,0.5966,0.5977,0.5982,0.599,0.6005,0.6013,0.6018,0.6026,0.6029,0.6029,0.603,0.6037,0.6037,0.6038,0.6041,0.6042,0.603,0.603,0.603,0,0.5903,0.5916,0.5925,0.5934,0.594,0.5947,0.5955,0.5962,0.5976,0.598,0.598,0.6,0.6007,0.602,0.6023,0.6027,0.603,0.6027,0.6037,0.6037,0.6038,0.6041,0.6042,0.603,0.603,0.603,0.603,0,0.5913,0.5922,0.5927,0.594,0.5948,0.5956,0.5966,0.5972,0.5977,0.5984,0.5996,0.6005,0.6016,0.602,0.6024,0.6034,0.6034,0.6035,0.6034,0.6039,0.6042,0.6043,0.6029,0.6029,0.603,0.603,0,0,0.5909,0.5929,0.5931,0.5938,0.5952,0.5959,0.5968,0.598,0.5986,0.5995,0.6003,0.6017,0.6019,0.6026,0.6031,0.6037,0.6043,0.6038,0.6038,0.6038,0.6055,0.6053,0.6055,0.6046,0.6046,0.6046,0.6054,0,0.5913,0.593,0.5939,0.5952,0.5961,0.5969,0.5977,0.5987,0.5994,0.6003,0.6011,0.6021,0.6022,0.6026,0.6033,0.6041,0.6046,0.6041,0.6053,0.6053,0.6049,0.6056,0.6054,0.6061,0.6055,0.6056,0.6056,0,0.592,0.5931,0.5945,0.5959,0.5964,0.5971,0.5983,0.5991,0.6003,0.6008,0.6017,0.6022,0.6033,0.6032,0.6047,0.6043,0.6049,0.6054,0.6055,0.6055,0.6054,0.6057,0.6063,0.6064,0.6057,0.6057,0.6057,0,0.5916,0.5934,0.5945,0.5951,0.5968,0.5973,0.5981,0.5992,0.5999,0.601,0.6015,0.6027,0.6033,0.6042,0.6051,0.605,0.6065,0.6065,0.607,0.607,0.6072,0.6071,0.6079,0.6076,0.6076,0.6076,0.6076,0,0.5919,0.5928,0.5944,0.5951,0.5961,0.5971,0.5981,0.5989,0.6,0.6008,0.6016,0.6024,0.6036,0.6046,0.6053,0.6064,0.6067,0.6071,0.6073,0.607,0.607,0.6074,0.6073,0.6077,0.6077,0.6077,0.6076,0,0.5916,0.5927,0.594,0.5956,0.596,0.5967,0.5981,0.5988,0.5996,0.6007,0.6011,0.6024,0.6036,0.6046,0.6061,0.6066,0.6078,0.6081,0.6074,0.6075,0.6079,0.6078,0.6089,0.6091,0.6087,0.6087,0.6087,0,0.5917,0.5924,0.5941,0.5948,0.5956,0.5966,0.5974,0.5985,0.5993,0.6008,0.6013,0.6026,0.6037,0.6056,0.6066,0.6079,0.6081,0.6084,0.6083,0.608,0.6081,0.608,0.6081,0.6084,0.6084,0.6084,0.6084,0,0.5918,0.5924,0.5934,0.5948,0.5957,0.5968,0.5979,0.5984,0.5997,0.6006,0.6018,0.6027,0.6044,0.6056,0.607,0.6078,0.6083,0.6084,0.6086,0.6083,0.6079,0.6081,0.6074,0.6084,0.6084,0.6084,0.6084,0.6084,0.5917,0.5923,0.5937,0.5949,0.5959,0.597,0.5978,0.5988,0.5999,0.6014,0.602,0.6033,0.6046,0.6065,0.6074,0.6084,0.6085,0.6087,0.6088,0.6088,0.6087,0.6078,0.6087,0.6087,0.6087,0.6087,0.6087,0,0.5918,0.5927,0.5939,0.5955,0.5965,0.597,0.5983,0.5991,0.6002,0.6014,0.6025,0.6041,0.6053,0.6066,0.608,0.6086,0.6088,0.6089,0.6088,0.609,0.6086,0.6083,0.6086,0.6086,0.6086,0.6086,0.6086,0.6086,0.5919,0.5931,0.5939,0.5957,0.5966,0.598,0.5987,0.5997,0.6007,0.6024,0.6035,0.6043,0.6056,0.6071,0.6083,0.6086,0.6091,0.609,0.6094,0.609,0.609,0.609,0.6087,0.6091,0.6091,0.6097,0.6098,0.6098]},{"header":{"parameterUnit":"m.s-1","parameterCategory":1,"la1":30.2991,"la2":30.254,"lo1":-89.0895,"lo2":-89.0444,"dy":0.0017,"dx":0.0017,"nx":28,"ny":28,"refTime":"2024-10-21T21:00:00:Z","depth":0,"parameterNumber":3,"parameterNumberName":"V-component_of_WINDS"},"data":[0,0,0,0,0,0,0,0,0,0,0,0,0,0,0,0,0,0,0,0,0,0,0,0,0,0,0,0,0,0,0,0,0,0,0,0,0,0,0,0,0,0,0,0,0,0,0,0,0,0,0,0,0,0,0,0,0,0,-0.823,-0.823,0,-0.8266,-0.8266,-0.8267,-0.8289,-0.8289,-0.8289,-0.8289,-0.8325,-0.8326,-0.8327,0,0,0,0,0,0,0,0,0,0,0,0,0,-0.8179,-0.818,-0.823,-0.823,-0.8231,-0.8266,-0.8266,-0.8267,-0.8289,-0.8289,-0.8289,-0.8289,-0.8325,-0.8326,-0.8327,0,0,0,0,0,0,0,0,0,0,0,0,0,-0.8207,-0.818,-0.823,-0.8246,-0.8248,-0.8266,-0.8266,-0.8267,-0.8289,-0.8289,-0.8289,-0.8289,-0.8325,-0.8326,-0.8327,-0.8332,0,0,-0.8331,-0.8332,0,0,0,0,0,0,0,0,-0.8205,-0.8208,-0.8243,-0.8245,-0.8247,-0.8273,-0.8262,-0.8289,-0.8289,-0.8273,-0.8289,-0.8289,-0.8308,-0.831,-0.8317,-0.8333,-0.8335,-0.8331,-0.8332,-0.8333,-0.8333,0,0,0,0,0,0,0,-0.8203,-0.8207,-0.8244,-0.8243,-0.8246,-0.8251,-0.8255,-0.8267,-0.8289,-0.8274,-0.8276,-0.828,-0.8309,-0.8315,-0.8318,-0.8336,-0.8331,-0.8332,-0.8333,-0.8334,-0.8359,-0.8359,0,0,0,0,0,0,-0.8199,-0.8205,-0.8243,-0.8245,-0.8226,-0.8252,-0.8256,-0.8264,-0.8289,-0.8293,-0.828,-0.8281,-0.8313,-0.8316,-0.8319,-0.8327,-0.8333,-0.8334,-0.8334,-0.8359,-0.8359,-0.8359,0,0,0,0,0,0,-0.8197,-0.8202,-0.8241,-0.8226,-0.8231,-0.8253,-0.8261,-0.8265,-0.8272,-0.8293,-0.8297,-0.8283,-0.8313,-0.8317,-0.8329,-0.8328,-0.8334,-0.8336,-0.8359,-0.8359,-0.8359,-0.8341,0,0,0,0,0,0,-0.8196,-0.8201,-0.8203,-0.8226,-0.8232,-0.825,-0.8261,-0.8266,-0.8274,-0.8276,-0.8297,-0.83,-0.8314,-0.8327,-0.833,-0.833,-0.8337,-0.8359,-0.8359,-0.8359,-0.8342,-0.8341,-0.834,0,0,0,0,0,-0.8194,-0.8196,-0.8203,-0.8207,-0.8235,-0.825,-0.8254,-0.8269,-0.8274,-0.8276,-0.829,-0.83,-0.8328,-0.8328,-0.8332,-0.8332,-0.8359,-0.8359,-0.8359,-0.8343,-0.8341,-0.834,0,0,0,0,0,0,-0.8172,-0.8199,-0.8207,-0.8217,-0.8231,-0.8254,-0.8257,-0.8267,-0.828,-0.8281,-0.83,-0.8304,-0.8314,-0.8324,-0.8324,-0.8338,-0.8345,-0.8345,-0.8331,-0.833,-0.8328,-0.8326,-0.8338,0,0,0,0,0,-0.8169,-0.8179,-0.8202,-0.8209,-0.8216,-0.8235,-0.8242,-0.8253,-0.8269,-0.8275,-0.8289,-0.8304,-0.8316,-0.8323,-0.8336,-0.8344,-0.8349,-0.8346,-0.8345,-0.8344,-0.8344,-0.835,-0.8349,-0.8358,-0.8358,-0.8358,0,0,-0.8161,-0.8178,-0.8183,-0.8205,-0.8217,-0.8228,-0.824,-0.825,-0.8258,-0.8276,-0.8288,-0.8299,-0.8317,-0.8327,-0.8332,-0.8336,-0.8343,-0.8344,-0.8343,-0.8343,-0.835,-0.8349,-0.8348,-0.8358,-0.8358,-0.8358,0,0,-0.8153,-0.8166,-0.8173,-0.8186,-0.8205,-0.8218,-0.822,-0.8241,-0.825,-0.8262,-0.8276,-0.8286,-0.8306,-0.8319,-0.8327,-0.8325,-0.8335,-0.8329,-0.8322,-0.8327,-0.8327,-0.8326,-0.8326,-0.8325,-0.8329,-0.8329,-0.8329,0,-0.8141,-0.8158,-0.8176,-0.8186,-0.8195,-0.8213,-0.822,-0.8231,-0.8253,-0.8259,-0.8263,-0.829,-0.8303,-0.8316,-0.8316,-0.8323,-0.8325,-0.8326,-0.8325,-0.8325,-0.8325,-0.8325,-0.8324,-0.8328,-0.8328,-0.8328,-0.8328,0,-0.8143,-0.8154,-0.8158,-0.8179,-0.8189,-0.8197,-0.8217,-0.8224,-0.8235,-0.8248,-0.8261,-0.8277,-0.8293,-0.8298,-0.8307,-0.8313,-0.8315,-0.8322,-0.8329,-0.8323,-0.8323,-0.8323,-0.8327,-0.8327,-0.8327,-0.8328,0,0,-0.8121,-0.8153,-0.8154,-0.8164,-0.8187,-0.8196,-0.8206,-0.8223,-0.8229,-0.8244,-0.8253,-0.827,-0.8278,-0.8288,-0.8299,-0.8304,-0.8302,-0.8311,-0.8312,-0.8309,-0.831,-0.8304,-0.8304,-0.8309,-0.8309,-0.8309,-0.8309,0,-0.8116,-0.8134,-0.8151,-0.8164,-0.8175,-0.8193,-0.8201,-0.8216,-0.8229,-0.824,-0.8254,-0.8266,-0.8275,-0.8281,-0.8287,-0.8301,-0.8303,-0.8302,-0.8318,-0.8318,-0.8312,-0.8304,-0.8298,-0.8296,-0.8309,-0.8309,-0.8309,0,-0.8112,-0.8127,-0.8141,-0.8164,-0.8169,-0.8177,-0.8194,-0.8204,-0.8222,-0.8231,-0.8243,-0.8256,-0.8267,-0.8273,-0.8289,-0.8288,-0.8296,-0.8304,-0.8305,-0.8307,-0.8313,-0.8306,-0.8296,-0.8296,-0.8309,-0.8309,-0.8309,0,-0.8095,-0.8118,-0.813,-0.8138,-0.8165,-0.817,-0.8182,-0.82,-0.8209,-0.8224,-0.823,-0.8246,-0.8255,-0.8267,-0.8284,-0.8287,-0.8299,-0.8306,-0.8307,-0.8306,-0.8308,-0.8308,-0.8299,-0.8313,-0.8313,-0.8313,-0.8313,0,-0.8087,-0.8095,-0.8123,-0.813,-0.8139,-0.8159,-0.8168,-0.8181,-0.8197,-0.8207,-0.8223,-0.8232,-0.8254,-0.8266,-0.8279,-0.8291,-0.8295,-0.8303,-0.8306,-0.8301,-0.83,-0.8306,-0.8307,-0.8313,-0.8313,-0.8313,-0.8313,0,-0.8069,-0.8088,-0.8102,-0.8127,-0.8134,-0.8139,-0.8161,-0.8168,-0.8183,-0.8195,-0.8199,-0.8221,-0.8236,-0.8255,-0.8275,-0.8284,-0.8295,-0.83,-0.8289,-0.8291,-0.829,-0.829,-0.8285,-0.8286,-0.8299,-0.8299,-0.8299,0,-0.8063,-0.807,-0.8096,-0.8104,-0.8115,-0.8128,-0.8138,-0.8158,-0.8168,-0.8189,-0.8195,-0.8211,-0.8225,-0.8248,-0.8266,-0.8282,-0.8288,-0.8285,-0.829,-0.8285,-0.8288,-0.8287,-0.8288,-0.8283,-0.8283,-0.8283,-0.8283,0,-0.805,-0.806,-0.8074,-0.8091,-0.8103,-0.8118,-0.8133,-0.8139,-0.8162,-0.8172,-0.8188,-0.8199,-0.8221,-0.8237,-0.8255,-0.8267,-0.8279,-0.8281,-0.8282,-0.8277,-0.827,-0.8274,-0.8285,-0.8281,-0.8281,-0.8281,-0.8281,-0.8282,-0.8038,-0.8045,-0.8065,-0.808,-0.8094,-0.8108,-0.8117,-0.8133,-0.8147,-0.8166,-0.8177,-0.8193,-0.8212,-0.8238,-0.825,-0.8263,-0.8267,-0.8268,-0.8268,-0.8268,-0.8267,-0.8269,-0.8266,-0.8266,-0.8266,-0.8266,-0.8266,0,-0.8026,-0.804,-0.8054,-0.8076,-0.8088,-0.8099,-0.8117,-0.8126,-0.814,-0.8157,-0.8171,-0.8189,-0.8205,-0.8225,-0.8243,-0.8249,-0.8255,-0.8253,-0.8253,-0.8255,-0.8262,-0.826,-0.8248,-0.8248,-0.8248,-0.8248,-0.8248,-0.8248,-0.8021,-0.8034,-0.8046,-0.8066,-0.808,-0.8096,-0.8105,-0.8119,-0.8133,-0.8153,-0.8167,-0.818,-0.8198,-0.8217,-0.8233,-0.8238,-0.8244,-0.824,-0.8247,-0.8253,-0.8255,-0.8256,-0.8254,-0.8241,-0.8241,-0.824,-0.824,-0.824]}]]